DW6366 Weather Reports


Display with metric or nautical units.
time (UTC)temp
F
wind
direction
speed
MPH
gust
MPH
rain 1hr
in
rain 24hr
in
rain mn
in
humidity
%
barometer
mb
20260510200335 52 104 4.0 7.0 0.00 0.00 0.00 75 1011.3
20260510195352 52 9 4.0 9.0 0.00 0.00 0.00 75 1011.4
20260510194325 52 309 4.0 10.0 0.00 0.00 0.00 75 1011.3
20260510193334 52 44 4.0 12.0 0.00 0.00 0.00 75 1011.3
20260510192324 53 349 3.0 12.0 0.00 0.00 0.00 74 1011.3
20260510191348 53 33 3.0 9.0 0.00 0.00 0.00 74 1011.3
20260510190335 54 308 3.0 11.0 0.00 0.00 0.00 73 1011.4
20260510185347 54 312 5.0 12.0 0.00 0.00 0.00 73 1011.4
20260510184328 55 164 3.0 9.0 0.00 0.00 0.00 72 1011.5
20260510183341 55 23 3.0 8.0 0.00 0.00 0.00 72 1011.5
20260510182324 55 26 3.0 14.0 0.00 0.00 0.00 72 1011.4
20260510181348 56 82 4.0 9.0 0.00 0.00 0.00 72 1011.5
20260510180331 56 323 2.0 8.0 0.00 0.00 0.00 72 1011.6
20260510175320 56 102 3.0 8.0 0.00 0.00 0.00 71 1011.5
20260510174335 56 350 2.0 12.0 0.00 0.00 0.00 72 1011.4
20260510173355 57 263 5.0 14.0 0.00 0.00 0.00 70 1011.6
20260510172322 57 354 4.0 13.0 0.00 0.00 0.00 69 1011.5
20260510171337 58 11 3.0 11.0 0.00 0.00 0.00 70 1011.7
20260510170327 58 255 3.0 11.0 0.00 0.00 0.00 69 1011.7
20260510165339 58 15 3.0 12.0 0.00 0.00 0.00 69 1011.6
20260510164326 59 37 4.0 13.0 0.00 0.00 0.00 69 1011.7
20260510163337 59 316 3.0 14.0 0.00 0.00 0.00 67 1011.7
20260510162326 60 2 3.0 9.0 0.00 0.00 0.00 67 1011.8
20260510161339 60 319 3.0 11.0 0.00 0.00 0.00 66 1011.8
20260510160353 61 280 5.0 13.0 0.00 0.00 0.00 64 1012.0
20260510155338 61 10 5.0 10.0 0.00 0.00 0.00 62 1012.1
20260510154324 63 23 2.0 11.0 0.00 0.00 0.00 61 1012.2
20260510153332 64 96 3.0 10.0 0.00 0.00 0.00 58 1012.3
20260510152358 64 9 3.0 12.0 0.00 0.00 0.00 58 1012.4
20260510151330 64 317 2.0 6.0 0.00 0.00 0.00 58 1012.5
20260510150339 64 23 3.0 11.0 0.00 0.00 0.00 58 1012.6
20260510145331 63 221 2.0 8.0 0.00 0.00 0.00 59 1012.6
20260510144414 64 257 4.0 10.0 0.00 0.00 0.00 57 1012.7
20260510143333 64 7 5.0 10.0 0.00 0.00 0.00 56 1012.8
20260510142342 63 319 3.0 9.0 0.00 0.00 0.00 57 1012.7
20260510141352 64 22 5.0 12.0 0.00 0.00 0.00 57 1012.7
20260510140341 64 42 4.0 9.0 0.00 0.00 0.00 57 1013.1
20260510135351 64 1 3.0 9.0 0.00 0.00 0.00 58 1013.1
20260510134324 64 328 3.0 9.0 0.00 0.00 0.00 55 1013.3
20260510133336 65 32 2.0 8.0 0.00 0.00 0.00 55 1013.3
20260510132346 65 34 2.0 8.0 0.00 0.00 0.00 58 1013.5
20260510131332 64 323 4.0 12.0 0.00 0.00 0.00 57 1013.7
20260510130320 65 61 3.0 11.0 0.00 0.00 0.00 58 1013.8
20260510125331 65 242 2.0 7.0 0.00 0.00 0.00 61 1013.9
20260510124330 65 316 3.0 11.0 0.00 0.00 0.00 56 1014.0
20260510123327 65 63 3.0 9.0 0.00 0.00 0.00 60 1014.0
20260510122339 65 356 3.0 9.0 0.00 0.00 0.00 58 1014.2
20260510121331 65 10 2.0 10.0 0.00 0.00 0.00 60 1014.2
20260510120342 64 340 2.0 10.0 0.00 0.00 0.00 60 1014.3
20260510115344 62 100 4.0 10.0 0.00 0.00 0.00 62 1014.3
20260510114333 63 75 4.0 11.0 0.00 0.00 0.00 62 1014.3
20260510113344 64 53 3.0 10.0 0.00 0.00 0.00 60 1014.5
20260510112330 63 21 3.0 9.0 0.00 0.00 0.00 60 1014.5
20260510111321 65 65 3.0 8.0 0.00 0.00 0.00 59 1014.6
20260510110320 65 327 2.0 7.0 0.00 0.00 0.00 61 1014.8
20260510105336 63 27 2.0 10.0 0.00 0.00 0.00 62 1014.9
20260510104402 63 38 2.0 8.0 0.00 0.00 0.00 61 1014.8
20260510103317 63 351 4.0 12.0 0.00 0.00 0.00 60 1015.0
20260510102349 63 27 3.0 10.0 0.00 0.00 0.00 60 1015.0
20260510101320 63 286 3.0 9.0 0.00 0.00 0.00 62 1015.1
20260510100346 63 296 3.0 9.0 0.00 0.00 0.00 62 1015.2
20260510095330 62 57 3.0 12.0 0.00 0.00 0.00 62 1015.3
20260510094327 63 233 4.0 12.0 0.00 0.00 0.00 59 1015.2
20260510093336 64 307 4.0 10.0 0.00 0.00 0.00 58 1015.3
20260510092322 63 42 2.0 9.0 0.00 0.00 0.00 58 1015.4
20260510091321 63 358 4.0 12.0 0.00 0.00 0.00 56 1015.5
20260510090348 62 17 3.0 7.0 0.00 0.00 0.00 57 1015.5
20260510085351 62 350 3.0 11.0 0.00 0.00 0.00 55 1015.5
20260510084333 62 340 4.0 10.0 0.00 0.00 0.00 57 1015.6
20260510083343 61 234 3.0 7.0 0.00 0.00 0.00 60 1015.6
20260510082350 60 44 4.0 10.0 0.00 0.00 0.00 60 1015.9
20260510081334 60 336 3.0 9.0 0.00 0.00 0.00 66 1015.8
20260510080346 60 98 2.0 8.0 0.00 0.00 0.00 68 1015.8
20260510075322 59 45 3.0 10.0 0.00 0.00 0.00 68 1015.9
20260510074322 58 1 3.0 8.0 0.00 0.00 0.00 70 1015.9
20260510073404 58 327 4.0 11.0 0.00 0.00 0.00 71 1015.9
20260510072322 57 298 4.0 11.0 0.00 0.00 0.00 72 1016.0
20260510071348 56 7 2.0 10.0 0.00 0.00 0.00 75 1016.0
20260510070358 56 355 2.0 7.0 0.00 0.00 0.00 77 1016.1
20260510065348 55 23 3.0 7.0 0.00 0.00 0.00 79 1016.1
20260510064322 54 40 2.0 5.0 0.00 0.00 0.00 80 1016.1
20260510063326 53 59 2.0 9.0 0.00 0.00 0.00 82 1016.1
20260510062320 53 28 1.0 7.0 0.00 0.00 0.00 82 1016.1
20260510061354 52 21 2.0 8.0 0.00 0.00 0.00 83 1016.2
20260510060322 51 7 1.0 5.0 0.00 0.00 0.00 83 1016.2
20260510055333 51 2 2.0 4.0 0.00 0.00 0.00 83 1016.1
20260510054321 51 350 1.0 5.0 0.00 0.00 0.00 84 1016.1
20260510053322 51 32 2.0 6.0 0.00 0.00 0.00 84 1016.1
20260510052343 51 8 1.0 5.0 0.00 0.00 0.00 85 1016.1
20260510051345 50 357 2.0 7.0 0.00 0.00 0.00 85 1016.1
20260510050347 50 328 1.0 4.0 0.00 0.00 0.00 86 1016.1
20260510045352 50 2 2.0 4.0 0.00 0.00 0.00 86 1016.1
20260510044342 50 350 1.0 4.0 0.00 0.00 0.00 86 1016.1
20260510043323 50 21 2.0 6.0 0.00 0.00 0.00 86 1016.2
20260510042341 50 24 1.0 6.0 0.00 0.00 0.00 86 1016.1
20260510041321 50 15 2.0 6.0 0.00 0.00 0.00 86 1016.2
20260510040325 50 1 2.0 5.0 0.00 0.00 0.00 86 1016.0
20260510035335 50 13 1.0 4.0 0.00 0.00 0.00 86 1016.0
20260510034329 51 7 2.0 7.0 0.00 0.00 0.00 86 1015.9
20260510033321 51 93 1.0 4.0 0.00 0.00 0.00 85 1016.0
20260510032327 51 359 1.0 6.0 0.00 0.00 0.00 85 1016.0
20260510031323 51 357 2.0 4.0 0.00 0.00 0.00 85 1016.0
20260510030333 51 331 1.0 7.0 0.00 0.00 0.00 84 1016.1
20260510025353 51 9 1.0 5.0 0.00 0.00 0.00 84 1016.1
20260510024338 51 336 1.0 6.0 0.00 0.00 0.00 84 1016.2
20260510023337 51 15 1.0 5.0 0.00 0.00 0.00 84 1016.3
20260510022342 51 357 1.0 5.0 0.00 0.00 0.00 83 1016.3
20260510021329 52 356 1.0 9.0 0.00 0.00 0.00 83 1016.4
20260510020415 52 41 1.0 6.0 0.00 0.00 0.00 83 1016.5
20260510015336 52 25 1.0 6.0 0.00 0.00 0.00 83 1016.4
20260510014332 52 360 1.0 4.0 0.00 0.00 0.00 83 1016.4
20260510013330 52 31 1.0 3.0 0.00 0.00 0.00 83 1016.4
20260510012323 52 9 1.0 4.0 0.00 0.00 0.00 83 1016.3
20260510011339 52 11 1.0 2.0 0.00 0.00 0.00 83 1016.4
20260510010355 52 3 1.0 2.0 0.00 0.00 0.00 83 1016.4
20260510005342 53 23 1.0 3.0 0.00 0.00 0.00 82 1016.4
20260510004347 53 15 1.0 3.0 0.00 0.00 0.00 82 1016.6
20260510003321 53 338 1.0 3.0 0.00 0.00 0.00 82 1016.7
20260510002319 53 3 1.0 3.0 0.00 0.00 0.00 82 1016.7
20260510001327 53 6 0.0 2.0 0.00 0.00 0.00 82 1016.8
20260510000411 53 349 1.0 6.0 0.00 0.00 0.00 82 1016.9
20260509235359 54 17 1.0 3.0 0.00 0.00 0.00 81 1016.8
20260509234345 54 350 1.0 4.0 0.00 0.00 0.00 81 1016.7
20260509233355 54 325 1.0 4.0 0.00 0.00 0.00 80 1016.8
20260509232321 54 23 1.0 6.0 0.00 0.00 0.00 80 1016.8
20260509231406 54 18 1.0 5.0 0.00 0.00 0.00 80 1016.8
20260509230338 54 351 2.0 4.0 0.00 0.00 0.00 79 1016.9
20260509225348 54 18 2.0 5.0 0.00 0.00 0.00 79 1016.9
20260509224344 54 5 1.0 5.0 0.00 0.00 0.00 79 1016.9
20260509223336 55 340 1.0 5.0 0.00 0.00 0.00 79 1017.0
20260509222323 54 359 1.0 5.0 0.00 0.00 0.00 78 1017.0
20260509221330 55 352 1.0 2.0 0.00 0.00 0.00 77 1016.9
20260509220413 55 17 0.0 2.0 0.00 0.00 0.00 76 1017.0
20260509215355 55 17 0.0 2.0 0.00 0.00 0.00 75 1017.0
20260509214321 55 13 0.0 2.0 0.00 0.00 0.00 75 1016.9
20260509213345 56 14 1.0 3.0 0.00 0.00 0.00 74 1017.0
20260509212330 56 348 1.0 3.0 0.00 0.00 0.00 73 1016.9
20260509211349 56 357 1.0 5.0 0.00 0.00 0.00 73 1017.1
20260509210355 56 1 1.0 3.0 0.00 0.00 0.00 72 1017.0
20260509205405 57 14 0.0 3.0 0.00 0.00 0.00 71 1017.1
20260509204325 57 28 0.0 5.0 0.00 0.00 0.00 70 1017.0
20260509203320 57 5 0.0 4.0 0.00 0.00 0.00 70 1017.0
20260509202337 57 8 1.0 5.0 0.00 0.00 0.00 69 1016.8
20260509201343 58 13 1.0 3.0 0.00 0.00 0.00 68 1016.9